Regional Weather Roundup
Issued by NWS Upton, NY

Current Version | Previous Version | Graphics & Text | Print | Product List | Glossary Off
Versions: 1 2 3 4 5 6 7 8 9 10 11 12 13 14 15 16 17 18 19 20 21 22 23 24 25 26 27 28 29 30 31 32 33 34 35 36 37 38 39 40 41 42 43 44 45 46 47 48 49 50

000
ASUS41 KOKX 191405
RWROKX

REGIONAL WEATHER ROUNDUP
NATIONAL WEATHER SERVICE NEW YORK NY
1000 AM EDT FRI SEP 19 2014

NOTE: "FAIR" INDICATES FEW OR NO CLOUDS BELOW 12,000 FEET WITH NO
SIGNIFICANT WEATHER AND/OR OBSTRUCTIONS TO VISIBILITY.

NYZ071-072-176-178-NJZ106-104-191500-
NEW YORK CITY METRO AREA


CITY           SKY/WX    TMP DP  RH WIND       PRES   REMARKS
CENTRAL PARK   MOSUNNY   57  40  52 NE9G18    30.36R
LAGUARDIA APRT MOSUNNY   58  44  60 NE16      30.33R
KENNEDY INTL   MOSUNNY   61  43  51 NE15      30.33R
NEWARK/LIBERTY PTSUNNY   59  39  47 NE12      30.33R
BRNX BOT. GARD   N/A     57  39  51 NE9       30.34R
TETERBORO      MOSUNNY   59  37  44 NE10      30.33R
$$

NYZ177-179-078>081-191500-
LONG ISLAND NEW YORK

CITY           SKY/WX    TMP DP  RH WIND       PRES   REMARKS
FARMINGDALE    SUNNY     59  45  59 NE13      30.33R
ISLIP          MOSUNNY   59  44  57 E14G21    30.32R
SHIRLEY        PTSUNNY   58  44  60 N9        30.34R
WESTHAMPTON    SUNNY     59  44  57 NE17      30.35R
MONTAUK POINT    N/A     57  43  59 NE12G20   30.35R
$$

NYZ052-065-067-191500-
HUDSON VALLEY

CITY           SKY/WX    TMP DP  RH WIND       PRES   REMARKS
WHITE PLAINS   MOSUNNY   55  38  52 NE9       30.34R
NEWBURGH       MOSUNNY   54  41  62 E12       30.37R
MONTGOMERY     SUNNY     54  39  57 NE9       30.36R
POUGHKEEPSIE   SUNNY     54  40  59 N7        30.36R
ALBANY         MOSUNNY   50  36  58 NE7       30.39S
$$

NJZ001-105-106-008-010-013-015-019>022-104-191500-
NEW JERSEY

CITY           SKY/WX    TMP DP  RH WIND       PRES   REMARKS
NEWARK/LIBERTY PTSUNNY   59  39  47 NE12      30.33R
TETERBORO      MOSUNNY   59  37  44 NE10      30.33R
CALDWELL       MOSUNNY   56  42  59 E12       30.34R
MORRISTOWN     MOSUNNY   59  48  67 NE9G16    30.34R
SOMERVILLE     NOT AVBL
LINDEN         FAIR      63  41  43 NE10G18   30.35R
SUSSEX         SUNNY     55  43  63 NE7       30.35S
ANDOVER          N/A     53  45  74 NE5       30.34R
TRENTON        MOSUNNY   59  48  67 NE12      30.31R
MILLVILLE      SUNNY     65  56  72 E12       30.26R
ATLANTIC CITY  CLOUDY    64  57  78 NE17G26   30.26R
WRIGHTSTOWN    CLOUDY    62  52  70 E15       30.28R
TOMS RIVER     CLOUDY    61  52  72 NE14      30.31R
BELMAR         SUNNY     61  45  55 NE16      30.31R
$$

PAZ047>061-062-071-191500-
EASTERN PENNSYLVANIA

CITY           SKY/WX    TMP DP  RH WIND       PRES   REMARKS
PHILADELPHIA   PTSUNNY   63  51  65 NE15      30.30R
ALLENTOWN      SUNNY     58  45  62 NE10      30.33R
SCRANTON       SUNNY     54  42  64 VRB3      30.32R
$$

CTZ002-004>006-009-010-012-RIZ004-006-007-MAZ004-011-015-191500-
SOUTHERN NEW ENGLAND
 IN CT

CITY           SKY/WX    TMP DP  RH WIND       PRES   REMARKS
BRADLEY INTL   MOSUNNY   54  34  46 NE14      30.37R
HARTFORD       SUNNY     52  38  58 N8        30.38R
DANBURY        SUNNY     53  37  54 E8        30.37R
WTRBRY/OXFORD  MOSUNNY   52  36  54 E10       30.37R
BRIDGEPORT     MOSUNNY   56  39  53 NE14      30.35R
MERIDEN        SUNNY     54  37  52 N10       30.37R
NEW HAVEN      MOSUNNY   57  39  51 N13       30.36R
CHESTER        FAIR      52  36  54 NE9       30.35R
GROTON         SUNNY     56  39  53 NE9       30.35R
WILLIMANTIC    SUNNY     53  35  50 NE10      30.37R

 IN RI

CITY           SKY/WX    TMP DP  RH WIND       PRES   REMARKS
PROVIDENCE     MOSUNNY   55  36  48 NE13      30.38R
BLOCK ISLAND   MOSUNNY   55  41  58 NE15G22   30.34R
WESTERLY       SUNNY     56  38  50 NE10      30.35R

 IN MA

CITY           SKY/WX    TMP DP  RH WIND       PRES   REMARKS
BOSTON         SUNNY     53  35  50 N10       30.39R
WORCESTER      SUNNY     47  33  58 VRB7      30.37R
WESTFIELD      SUNNY     52  32  46 NE9       30.39R
PROVINCETOWN   SUNNY     55  37  50 N13G21    30.36R
NANTUCKET      MOSUNNY   58  40  51 NE22      30.31R
$$

ANZ330-335-338-340-345-350-353-355-191500-
COASTAL MARINE OBSERVATIONS


STATION/POSITION TIME  SKY/WX   TEMP    WIND        PRES    VSBY  WAVE
                                AIR SEA DIR/SP/G                  HT/PER
                 (UTC)          (F)     (DEG/KT/KT) (MB)    (MI)  (FT/S)
NY HARB ENTRANCE 1400            59 70   50/ 17/ 21 1026.4          4/ 5
4S FIRE IS       1400               70                N/A           4/ 4
23SW MTP         1400                                 N/A           5/ 6
HUDSON CANYON    1400            66 72   50/ 21/ 27 1023.5          6/ 6
EXECUTION ROCKS  1400            57 70   50/ 17/ 23   N/A
WESTERN LI SOUND 1400            56      50/ 16/ 19   N/A           2/ 5
CENTRAL LI SOUND 1300            54 70   60/ 16/ 19   N/A           2/ 3
EASTERN LI SOUND 1300            58 67   40/ 12/ 19   N/A
ROBBINS REEF     1400            56      50/ 17/ 19 1025.6
$$


>>>>>>>>>>>>>>>>>>>>>>>>>>>> KEY <<<<<<<<<<<<<<<<<<<<<<<<<<<
>                                                          <
>     SKY/WX - SKY CONDITION/PRESENT WEATHER               <
>     TMP    - TEMPERATURE IN FAHRENHEIT                   <
>     DP     - DEWPOINT IN FAHRENHEIT                      <
>     RH     - RELATIVE HUMIDITY IN PERCENT                <
>     WIND   - DIRECTION AND SPEED IN MPH                  <
>     PRES   - MEAN SEA LEVEL PRESSURE IN INCHES OF HG     <
>     WCI    - WIND CHILL INDEX                            <
>     VSB    - VISIBILITY IN MILES                         <
>     HX     - HEAT INDEX                                  <
>     TC     - TEMPERATURE IN CELSIUS                      <
>     VRB    - VARIABLE WIND DIRECTION                     <
>                                                          <
>>>>>>>>>>>>>>>>>>>>>>>>>>>> KEY <<<<<<<<<<<<<<<<<<<<<<<<<<<




USA.gov is the U.S. government's official web portal to all federal, state and local government web resources and services.